Location: Home
(42.5358°N, 72.7383°W)
Time: 15:08:13
(UTC-05:00)

Vanguard 1 - Pass Details

Date: 30 November 2021
Orbit: 652 x 3830 km, 34.2° (Epoch: 19 January)

Event Time Altitude Azimuth Distance (km) Brightness Sun altitude
Rises 20:31:43 0° 175° (S) 6,857 14.2 -45.8°
Enters shadow 20:35:33 - 166° (SSE) 6,577 14.0 -46.5°
Reaches altitude 10° 20:39:28 10° 156° (SSE) 6,384 - -47.2°
Maximum altitude 20:49:37 15° 127° (SE) 6,337 - -49.0°
Drops below altitude 10° 21:00:23 10° 99° (E) 6,926 - -50.9°
Sets 21:09:16 0° 81° (E) 7,765 - -52.4°
